FW9372 Weather Reports


Display with metric or nautical units.
time (UTC)temp
F
wind
direction
speed
MPH
gust
MPH
rain 1hr
in
rain 24hr
in
rain mn
in
humidity
%
barometer
mb
20260906101605 71 0 0.0 0.0 0.00 0.03 0.00 99 1010.5
20260906100108 71 0 0.0 0.0 0.00 0.03 0.00 99 1010.4
20260906094607 71 0 0.0 0.0 0.00 0.03 0.00 99 1010.4
20260906093109 71 0 0.0 0.0 0.00 0.03 0.00 99 1010.4
20260906091614 70 0 0.0 0.0 0.00 0.03 0.00 99 1010.1
20260906090116 70 0 0.0 0.0 0.00 0.03 0.00 99 1010.0
20260906084613 71 0 0.0 0.0 0.00 0.03 0.00 99 1010.0
20260906083104 71 0 0.0 0.0 0.00 0.03 0.00 99 1010.0
20260906081609 71 0 0.0 0.0 0.00 0.03 0.00 99 1010.0
20260906080106 71 0 0.0 0.0 0.00 0.03 0.00 99 1010.0
20260906074612 71 0 0.0 0.0 0.00 0.03 0.00 99 1010.0
20260906073110 71 0 0.0 0.0 0.00 0.03 0.00 99 1010.1
20260906071609 71 0 0.0 0.0 0.00 0.03 0.00 98 1010.0
20260906070138 71 0 0.0 0.0 0.00 0.03 0.00 98 1010.2
20260906064608 71 0 0.0 0.0 0.00 0.03 0.00 98 1010.2
20260906063108 72 0 0.0 0.0 0.00 0.03 0.00 98 1010.3
20260906061635 72 0 0.0 0.0 0.00 0.03 0.00 98 1010.7
20260906060109 72 0 0.0 0.0 0.00 0.03 0.00 98 1010.6
20260906054608 72 0 0.0 3.0 0.00 0.03 0.00 98 1010.4
20260906053105 72 0 0.0 0.0 0.00 0.03 0.00 98 1010.2
20260906051606 72 0 0.0 0.0 0.00 0.03 0.00 98 1010.3
20260906050116 73 0 0.0 0.0 0.00 0.03 0.00 98 1010.6
20260906044607 73 0 0.0 0.0 0.00 0.03 0.03 98 1010.6
20260906043112 73 0 0.0 0.0 0.00 0.03 0.03 98 1010.6
20260906041608 73 0 0.0 0.0 0.00 0.03 0.03 98 1010.4
20260906040120 73 0 0.0 0.0 0.00 0.03 0.03 98 1010.4
20260906034607 74 0 0.0 0.0 0.00 0.03 0.03 97 1010.3
20260906033105 74 0 0.0 0.0 0.00 0.03 0.03 97 1010.2
20260906031610 74 0 0.0 0.0 0.00 0.03 0.03 97 1010.3
20260906030110 74 0 0.0 0.0 0.00 0.03 0.03 97 1010.2
20260906024608 74 0 0.0 0.0 0.00 0.03 0.03 97 1010.1
20260906023131 75 0 0.0 0.0 0.00 0.03 0.03 96 1009.9
20260906021605 75 0 0.0 0.0 0.00 0.03 0.03 95 1009.8
20260906020113 76 0 0.0 0.0 0.00 0.03 0.03 93 1009.7
20260906014629 78 0 0.0 3.0 0.00 0.03 0.03 92 1009.6
20260906013108 77 240 0.0 3.0 0.00 0.03 0.03 92 1009.4
20260906011606 78 0 0.0 1.0 0.00 0.03 0.03 91 1009.5
20260906010107 77 170 0.0 2.0 0.03 0.03 0.03 91 1010.2
20260906004614 78 0 0.0 0.0 0.03 0.03 0.03 91 1009.4
20260906003113 80 0 0.0 5.0 0.03 0.03 0.03 88 1009.0
20260906001605 84 0 0.0 5.0 0.03 0.03 0.03 87 1009.3
20260906000111 85 0 0.0 0.0 0.00 0.00 0.00 88 1009.3
20260905234605 86 0 0.0 0.0 0.00 0.00 0.00 87 1009.4
20260905233109 87 0 0.0 0.0 0.00 0.00 0.00 85 1009.4
20260905231608 88 0 0.0 0.0 0.00 0.00 0.00 84 1009.1
20260905230110 89 0 0.0 0.0 0.00 0.00 0.00 82 1009.0
20260905224609 89 0 0.0 0.0 0.00 0.00 0.00 81 1008.8
20260905223107 93 0 0.0 0.0 0.00 0.00 0.00 75 1008.7
20260905221606 96 0 0.0 0.0 0.00 0.00 0.00 72 1008.7
20260905220123 95 0 0.0 0.0 0.00 0.00 0.00 74 1008.8
20260905214606 95 0 0.0 0.0 0.00 0.00 0.00 70 1008.7
20260905213108 98 0 0.0 0.0 0.00 0.00 0.00 63 1009.1
20260905211610 97 0 0.0 0.0 0.00 0.00 0.00 58 1009.1
20260905210107 98 0 0.0 0.0 0.00 0.00 0.00 59 1009.3
20260905204607 97 0 0.0 0.0 0.00 0.00 0.00 59 1009.5
20260905203109 96 0 0.0 1.0 0.00 0.00 0.00 60 1009.6
20260905201604 98 0 0.0 0.0 0.00 0.00 0.00 58 1009.6
20260905200114 96 0 0.0 2.0 0.00 0.00 0.00 60 1009.9
20260905194604 96 0 0.0 2.0 0.00 0.00 0.00 63 1009.9
20260905193103 95 0 0.0 1.0 0.00 0.00 0.00 62 1010.3
20260905191605 95 0 0.0 1.0 0.00 0.00 0.00 62 1010.5
20260905190113 95 0 0.0 4.0 0.00 0.00 0.00 64 1010.7
20260905184608 96 0 0.0 1.0 0.00 0.00 0.00 66 1011.0
20260905183126 94 0 0.0 2.0 0.00 0.00 0.00 65 1011.2
20260905181606 93 0 0.0 4.0 0.00 0.00 0.00 64 1011.2
20260905180106 93 0 0.0 1.0 0.00 0.00 0.00 65 1011.2
20260905174607 92 0 0.0 4.0 0.00 0.00 0.00 70 1011.6
20260905173105 92 0 0.0 0.0 0.00 0.00 0.00 70 1011.7
20260905171608 91 0 0.0 2.0 0.00 0.00 0.00 67 1011.8
20260905170104 91 0 0.0 1.0 0.00 0.00 0.00 69 1012.1
20260905164609 90 0 0.0 3.0 0.00 0.00 0.00 70 1012.1
20260905163109 89 0 0.0 3.0 0.00 0.00 0.00 73 1012.4
20260905161608 88 0 0.0 5.0 0.00 0.00 0.00 73 1012.3
20260905160123 87 0 0.0 5.0 0.00 0.00 0.00 75 1012.5
20260905154607 87 0 0.0 6.0 0.00 0.00 0.00 76 1012.5
20260905153112 87 0 0.0 6.0 0.00 0.00 0.00 76 1012.5
20260905151610 86 66 0.0 7.0 0.00 0.00 0.00 77 1012.7
20260905150106 85 0 0.0 3.0 0.00 0.00 0.00 80 1012.7
20260905144604 84 58 0.0 4.0 0.00 0.00 0.00 81 1012.9
20260905143114 82 0 0.0 4.0 0.00 0.00 0.00 85 1012.9
20260905141606 84 68 0.0 0.0 0.00 0.00 0.00 81 1012.8
20260905140110 84 0 0.0 0.0 0.00 0.00 0.00 87 1012.4
20260905134606 83 0 0.0 0.0 0.00 0.00 0.00 89 1012.4
20260905133108 81 0 0.0 0.0 0.00 0.00 0.00 94 1012.5
20260905131611 79 0 0.0 0.0 0.00 0.00 0.00 98 1012.4
20260905130117 77 0 0.0 0.0 0.00 0.00 0.00 99 1012.4
20260905124605 75 0 0.0 0.0 0.00 0.00 0.00 99 1012.6
20260905123110 74 0 0.0 0.0 0.00 0.00 0.00 99 1012.4
20260905121605 74 0 0.0 0.0 0.00 0.00 0.00 99 1012.4
20260905120114 73 0 0.0 0.0 0.00 0.00 0.00 99 1012.3
20260905114602 73 0 0.0 0.0 0.00 0.00 0.00 99 1012.2
20260905113107 73 0 0.0 0.0 0.00 0.00 0.00 99 1012.0
20260905111614 73 0 0.0 0.0 0.00 0.00 0.00 99 1011.7
20260905110105 73 0 0.0 0.0 0.00 0.00 0.00 99 1011.4
20260905104607 72 0 0.0 0.0 0.00 0.00 0.00 99 1011.3
20260905103106 72 0 0.0 0.0 0.00 0.00 0.00 99 1011.4